WE3C Weather Reports


Display with metric or nautical units.
time (UTC)temp
F
wind
direction
speed
MPH
gust
MPH
rain 1hr
in
rain 24hr
in
rain mn
in
humidity
%
barometer
mb
20240619221508 85 186 0.0 1.0 0.00 0.00 0.00 60 1030.4
20240619220007 86 166 0.0 1.0 0.00 0.00 0.00 60 1030.2
20240619214507 86 175 0.0 1.0 0.00 0.00 0.00 59 1030.2
20240619213006 86 176 0.0 1.0 0.00 0.00 0.00 59 1030.1
20240619211504 87 168 0.0 3.0 0.00 0.00 0.00 58 1030.2
20240619210004 87 178 0.0 1.0 0.00 0.00 0.00 58 1030.2
20240619204503 88 185 0.0 0.0 0.00 0.00 0.00 57 1030.5
20240619203002 88 187 0.0 0.0 0.00 0.00 0.00 57 1030.5
20240619201502 88 188 0.0 0.0 0.00 0.00 0.00 56 1030.9
20240619200003 87 188 0.0 0.0 0.00 0.00 0.00 57 1030.9
20240619194500 87 188 0.0 0.0 0.00 0.00 0.00 56 1031.0
20240619193101 87 188 0.0 0.0 0.00 0.00 0.00 57 1031.0
20240619191608 87 188 0.0 0.0 0.00 0.00 0.00 55 1030.9
20240619190052 87 188 0.0 0.0 0.00 0.00 0.00 54 1030.9
20240619184548 88 188 0.0 0.0 0.00 0.00 0.00 51 1031.0
20240619183045 88 188 0.0 0.0 0.00 0.00 0.00 53 1031.0
20240619181550 87 198 0.0 0.0 0.00 0.00 0.00 54 1031.0
20240619180047 87 197 0.0 0.0 0.00 0.00 0.00 54 1031.1
20240619174553 87 197 0.0 1.0 0.00 0.00 0.00 54 1031.3
20240619173043 87 181 0.0 1.0 0.00 0.00 0.00 58 1031.4
20240619171541 87 178 0.0 0.0 0.00 0.00 0.00 58 1031.6
20240619170038 86 178 0.0 0.0 0.00 0.00 0.00 59 1031.7
20240619164541 85 177 0.0 0.0 0.00 0.00 0.00 60 1031.9
20240619163044 85 178 0.0 1.0 0.00 0.00 0.00 61 1032.0
20240619161532 83 209 0.0 0.0 0.00 0.00 0.00 63 1032.1
20240619160130 83 209 0.0 0.0 0.00 0.00 0.00 63 1032.1
20240619154532 83 209 0.0 0.0 0.00 0.00 0.00 65 1032.2
20240619153031 82 209 0.0 0.0 0.00 0.00 0.00 66 1032.2
20240619151524 82 209 0.0 0.0 0.00 0.00 0.00 67 1032.2
20240619150022 81 209 0.0 0.0 0.00 0.00 0.00 69 1032.3
20240619144517 80 209 0.0 0.0 0.00 0.00 0.00 70 1032.3
20240619143014 79 209 0.0 0.0 0.00 0.00 0.00 71 1032.4
20240619141515 78 209 0.0 0.0 0.00 0.00 0.00 72 1032.6
20240619140008 76 209 0.0 0.0 0.00 0.00 0.00 72 1032.5
20240619134504 75 209 0.0 0.0 0.00 0.00 0.00 73 1032.7
20240619133001 74 209 0.0 0.0 0.00 0.00 0.00 72 1032.6
20240619131603 74 209 0.0 0.0 0.00 0.00 0.00 72 1032.8
20240619130055 73 209 0.0 0.0 0.00 0.00 0.00 71 1032.6
20240619124600 72 209 0.0 0.0 0.00 0.00 0.00 69 1032.5
20240619123054 72 209 0.0 0.0 0.00 0.00 0.00 72 1032.5
20240619121551 71 209 0.0 0.0 0.00 0.00 0.00 63 1032.4
20240619120049 71 209 0.0 0.0 0.00 0.00 0.00 56 1032.3
20240619114553 70 210 0.0 0.0 0.00 0.00 0.00 53 1032.2
20240619113049 69 210 0.0 0.0 0.00 0.00 0.00 44 1032.2
20240619111543 69 210 0.0 0.0 0.00 0.00 0.00 38 1032.2
20240619110043 68 210 0.0 0.0 0.00 0.00 0.00 37 1032.2
20240619104545 67 210 0.0 1.0 0.00 0.00 0.00 40 1031.8
20240619103034 67 209 0.0 0.0 0.00 0.00 0.00 38 1031.7
20240619101535 67 201 0.0 0.0 0.00 0.00 0.00 37 1031.5
20240619100036 67 200 0.0 0.0 0.00 0.00 0.00 45 1031.4
20240619094522 67 200 0.0 0.0 0.00 0.00 0.00 49 1031.2
20240619093032 67 200 0.0 0.0 0.00 0.00 0.00 46 1031.2
20240619091531 68 200 0.0 0.0 0.00 0.00 0.00 36 1031.0
20240619090017 68 200 0.0 0.0 0.00 0.00 0.00 40 1030.9
20240619084515 68 200 0.0 0.0 0.00 0.00 0.00 38 1030.7
20240619083016 67 200 0.0 0.0 0.00 0.00 0.00 43 1030.6
20240619081512 67 199 0.0 0.0 0.00 0.00 0.00 48 1030.5
20240619080017 67 198 0.0 0.0 0.00 0.00 0.00 51 1030.5
20240619074508 67 196 0.0 0.0 0.00 0.00 0.00 55 1030.3
20240619073006 67 197 0.0 0.0 0.00 0.00 0.00 59 1030.4
20240619071504 68 197 0.0 0.0 0.00 0.00 0.00 60 1030.5
20240619070104 67 196 0.0 0.0 0.00 0.00 0.00 62 1030.4
20240619064548 68 196 0.0 0.0 0.00 0.00 0.00 68 1030.2
20240619063055 68 182 0.0 0.0 0.00 0.00 0.00 71 1030.0
20240619061540 69 180 0.0 0.0 0.00 0.00 0.00 73 1030.0
20240619060043 70 178 0.0 0.0 0.00 0.00 0.00 73 1030.0
20240619054533 70 178 0.0 0.0 0.00 0.00 0.00 73 1029.8
20240619053035 70 178 0.0 0.0 0.00 0.00 0.00 73 1029.8
20240619051532 70 178 0.0 0.0 0.00 0.00 0.00 73 1029.9
20240619050032 71 178 0.0 0.0 0.00 0.00 0.00 73 1029.7
20240619044531 71 178 0.0 0.0 0.00 0.00 0.00 73 1029.7
20240619043027 72 178 0.0 0.0 0.00 0.00 0.00 73 1029.8
20240619041524 72 178 0.0 0.0 0.00 0.00 0.00 73 1029.8
20240619040026 73 178 0.0 0.0 0.00 0.00 0.00 72 1029.8
20240619034519 73 178 0.0 0.0 0.00 0.00 0.00 72 1029.7
20240619033021 73 178 0.0 0.0 0.00 0.00 0.00 72 1029.5
20240619031518 74 178 0.0 0.0 0.00 0.00 0.00 72 1029.7
20240619030016 74 178 0.0 0.0 0.00 0.00 0.00 71 1029.7
20240619024509 75 178 0.0 0.0 0.00 0.00 0.00 72 1029.4
20240619023013 75 178 0.0 0.0 0.00 0.00 0.00 71 1029.4
20240619021508 76 178 0.0 0.0 0.00 0.00 0.00 71 1029.3
20240619020006 76 178 0.0 0.0 0.00 0.00 0.00 71 1029.2
20240619014505 77 181 0.0 1.0 0.00 0.00 0.00 71 1029.0
20240619013010 78 178 0.0 0.0 0.00 0.00 0.00 71 1028.6
20240619011603 79 178 0.0 1.0 0.00 0.00 0.00 71 1028.5
20240619010104 79 180 0.0 1.0 0.00 0.00 0.00 71 1028.4
20240619004559 80 181 0.0 1.0 0.00 0.00 0.00 71 1028.0
20240619003109 81 184 0.0 0.0 0.00 0.00 0.00 71 1028.0
20240619001559 82 186 0.0 1.0 0.00 0.00 0.00 69 1027.7
20240619000105 82 188 0.0 1.0 0.00 0.00 0.00 68 1027.6
20240618234608 83 190 0.0 0.0 0.00 0.00 0.00 68 1027.6
20240618233051 83 188 0.0 0.0 0.00 0.00 0.00 67 1027.6
20240618231604 84 190 0.0 1.0 0.00 0.00 0.00 66 1027.4
20240618230044 84 194 0.0 0.0 0.00 0.00 0.00 64 1027.3
20240618224546 85 194 0.0 0.0 0.00 0.00 0.00 63 1027.1
20240618223045 85 190 0.0 0.0 0.00 0.00 0.00 62 1027.1